Weather History for Monterey, CA

Change the Weather History Date:

Wednesday, January 29, 2014

  Actual Average Record
Temperature  
Mean Temperature 61 °F 52 °F  
Max Temperature 66 °F 60 °F 73 °F (2009)
Min Temperature 56 °F 43 °F 32 °F (2002)
Degree Days  
Heating Degree Days 4    
Month to date heating degree days 267  
Since 1 July heating degree days 1482  
Cooling Degree Days 0    
Month to date cooling degree days 2  
Year to date cooling degree days 2  
Growing Degree Days 9 (Base 50)    
Moisture  
Dew Point 56 °F    
Average Humidity 86    
Maximum Humidity 93    
Minimum Humidity 78    
Precipitation  
Precipitation 0.00 in - 0.13 in (1951)
Month to date precipitation T  
Year to date precipitation T  
Since 1 July precipitation 1.28  
Sea Level Pressure  
Sea Level Pressure 30.12 in    
Wind  
Wind Speed 2 mph (West)    
Max Wind Speed 8 mph    
Max Gust Speed 12 mph    
Visibility 8 miles    
Events Fog    
T = Trace of Precipitation, MM = Missing Value Source: NWS Daily Summary

Daily Weather History Graph

Daily Weather History Graph

Search for Another Location

Airport:

Trip Planner

Search our weather history database for the weather conditions in past years. The results will help you decide how hot, cold, wet, or windy it might be!

Date:

Astronomy

Jan. 29, 2014 Rise Set
Actual Time 7:11 AM PST 5:30 PM PST
Civil Twilight 6:43 AM PST 5:57 PM PST
Nautical Twilight 6:12 AM PST 6:28 PM PST
Astronomical Twilight 5:42 AM PST 6:59 PM PST
Moon 5:52 AM PST (1/29) 4:35 PM PST (1/29)
Length of Visible Light 11h 13m
Length of Day
10h 18m
Waning Crescent, 2% of the Moon is Illuminated
Jan 29
Waning Crescent
Jan 30
New
Feb 6
First Quarter
Feb 14
Full
Feb 22
Last Quarter

Hourly Weather History & Observations

Time (PST) Temp. Dew Point Humidity Pressure Visibility Wind Dir Wind Speed Gust Speed Precip Events Conditions
12:22 AM 59.0 °F 57.2 °F 94% 30.23 in 10.0 mi Calm Calm - N/A   Overcast
12:54 AM 60.1 °F 57.0 °F 90% 30.26 in 10.0 mi Calm Calm - N/A   Overcast
1:07 AM 60.8 °F 57.2 °F 88% 30.22 in 10.0 mi Calm Calm - N/A   Overcast
1:26 AM 60.8 °F 57.2 °F 88% 30.21 in 10.0 mi Calm Calm - N/A   Overcast
1:54 AM 60.1 °F 57.0 °F 90% 30.24 in 10.0 mi Calm Calm - N/A   Overcast
2:54 AM 60.1 °F 55.9 °F 86% 30.23 in 10.0 mi Calm Calm - N/A   Overcast
3:54 AM 59.0 °F 55.9 °F 90% 30.23 in 10.0 mi Calm Calm - N/A   Overcast
4:37 AM 57.2 °F 55.4 °F 94% 30.18 in 10.0 mi Calm Calm - N/A   Overcast
4:54 AM 57.9 °F 55.0 °F 90% 30.22 in 9.0 mi Calm Calm - N/A   Overcast
5:54 AM 57.9 °F 55.0 °F 90% 30.23 in 5.0 mi NW 3.5 mph - N/A   Overcast
6:54 AM 57.0 °F 55.0 °F 93% 30.23 in 7.0 mi Calm Calm - N/A   Overcast
7:54 AM 57.9 °F 55.0 °F 90% 30.22 in 6.0 mi Calm Calm - N/A   Overcast
8:54 AM 59.0 °F 55.9 °F 90% 30.24 in 6.0 mi Calm Calm - N/A   Overcast
9:54 AM 57.9 °F 55.9 °F 93% 30.25 in 4.0 mi Calm Calm - N/A   Overcast
10:54 AM 63.0 °F 57.0 °F 81% 30.23 in 10.0 mi Calm Calm - N/A   Overcast
11:54 AM 63.0 °F 57.0 °F 81% 30.21 in 10.0 mi WNW 4.6 mph - N/A   Overcast
12:51 PM 60.8 °F 55.4 °F 82% 30.14 in 10.0 mi WNW 6.9 mph - N/A   Overcast
12:54 PM 61.0 °F 55.9 °F 83% 30.18 in 10.0 mi NW 6.9 mph - N/A   Overcast
1:40 PM 60.8 °F 55.4 °F 82% 30.13 in 10.0 mi WNW 5.8 mph - N/A   Overcast
1:54 PM 61.0 °F 55.9 °F 83% 30.16 in 10.0 mi WNW 3.5 mph - N/A   Overcast
2:26 PM 62.6 °F 55.4 °F 77% 30.11 in 10.0 mi Calm Calm - N/A   Overcast
2:54 PM 61.0 °F 55.9 °F 83% 30.14 in 10.0 mi NW 3.5 mph - N/A   Overcast
3:54 PM 61.0 °F 55.9 °F 83% 30.12 in 10.0 mi Calm Calm - N/A   Overcast
4:19 PM 62.6 °F 57.2 °F 82% 30.07 in 10.0 mi Calm Calm - N/A   Mostly Cloudy
4:39 PM 62.6 °F 55.4 °F 77% 30.05 in 10.0 mi West 4.6 mph - N/A   Scattered Clouds
4:47 PM 62.6 °F 55.4 °F 77% 30.05 in 10.0 mi WNW 3.5 mph - N/A   Mostly Cloudy
4:54 PM 62.1 °F 55.9 °F 80% 30.09 in 10.0 mi West 3.5 mph - N/A   Mostly Cloudy
5:23 PM 60.8 °F 55.4 °F 82% 30.05 in 10.0 mi WNW 3.5 mph - N/A   Overcast
5:54 PM 59.0 °F 55.9 °F 90% 30.07 in 8.0 mi West 5.8 mph - N/A   Overcast
5:56 PM 59.0 °F 55.4 °F 88% 30.04 in 0.8 mi West 6.9 mph - N/A   Overcast
6:36 PM 57.2 °F 57.2 °F 100% 30.04 in 0.2 mi WSW 3.5 mph - N/A Fog Fog
6:49 PM 57.2 °F 55.4 °F 94% 30.04 in 0.5 mi West 5.8 mph - N/A Fog Fog
6:54 PM 57.0 °F 55.9 °F 96% 30.08 in 0.5 mi West 4.6 mph - N/A Fog Fog
7:21 PM 57.2 °F 55.4 °F 94% 30.04 in 0.5 mi West 6.9 mph - N/A Fog Fog
7:48 PM 55.4 °F 55.4 °F 100% 30.03 in 10.0 mi SSW 3.5 mph - N/A   Overcast
7:54 PM 57.0 °F 55.0 °F 93% 30.06 in 10.0 mi South 3.5 mph - N/A   Overcast
8:05 PM 57.2 °F 55.4 °F 94% 30.03 in 10.0 mi SSW 3.5 mph - N/A   Overcast
8:54 PM 57.9 °F 55.0 °F 90% 30.05 in 10.0 mi Calm Calm - N/A   Mostly Cloudy
9:01 PM 57.2 °F 55.4 °F 94% 30.01 in 10.0 mi Calm Calm - N/A   Mostly Cloudy
9:54 PM 57.0 °F 54.0 °F 89% 30.04 in 10.0 mi West 5.8 mph - N/A   Overcast
10:09 PM 57.2 °F 53.6 °F 88% 30.00 in 10.0 mi WSW 5.8 mph - N/A   Overcast
10:54 PM 55.9 °F 53.1 °F 90% 30.03 in 10.0 mi West 3.5 mph - N/A   Mostly Cloudy
11:22 PM 55.4 °F 53.6 °F 94% 29.99 in 10.0 mi West 4.6 mph - N/A   Mostly Cloudy
11:54 PM 55.9 °F 52.0 °F 87% 30.02 in 10.0 mi SSW 3.5 mph - N/A   Overcast